Location: Guilderland
(42.7045°N, 73.9115°W)
Time: 15:35:36
(UTC+00:00)

CORIOLIS - Pass Details

Date: 24 January 2020
Orbit: 818 x 839 km, 98.7° (Epoch: 23 February)

Event Time Altitude Azimuth Distance (km) Brightness Sun altitude
Rises 22:20:32 0° 161° (SSE) 3,351 7.4 -4.6°
Reaches altitude 10° 22:22:52 10° 160° (SSE) 2,419 6.6 -5.0°
Maximum altitude 22:28:13 80° 74° (ENE) 840 4.1 -5.9°
Drops below altitude 10° 22:33:36 10° 348° (NNW) 2,425 6.5 -6.9°
Sets 22:35:57 0° 348° (NNW) 3,360 7.2 -7.3°
